Find Starlink 4021

NORAD ID: 53149 Int'l Des: 2022-083 Owner: SPXS Country: US Constellation: starlink operational
LEOCIRCULAR

現在のビュー

3D地球を読み込み中...

About Starlink 4021

Starlink 4021 (NORAD 53149) is a starlink constellation satellite (v1.5) launched Jul 17, 2022 by SPXS of US. It operates in LEO, CIRCULAR orbit with a mass of 297.00 kg.

次回通過

Passes for default location (London). Set your location on the main map for personalized predictions.

高度履歴

Loading altitude history...

軌道要素

1 53149U 22083T 26255.10881191 .00001158 00000-0 45412-4 0 9991
2 53149 53.1620 34.7636 0001033 82.3313 277.7807 15.34382775229676
Epoch: Sep 12, 2026 • Age: 18 hours

現在のステータス

高度 480.3 km
遠地点 / 近地点 N/A
速度 7.62 km/s
衛星直下点 -48.99°S, 35.11°W
打ち上げ日 Jul 17, 2022
運用期間 4.1 years
タイプ internet

技術仕様

分類 Payload
質量 297.00 kg
乾燥質量 275.00 kg
総質量 297.00 kg
長さ 0.20 m
直径 2.80 m
スパン 9.00 m
形状 Box + pan
製造者 SPXS
バスタイプ Starlink
フェーズステータス In Orbit
所有者/国 SPXS/US

Most Searched